Regional Weather Roundup
Issued by NWS Lake Charles, LA

Current Version | Previous Version | Text Only | Print | Product List | Glossary On
Versions: 1 2 3 4 5 6 7 8 9 10 11 12 13 14 15 16 17 18 19 20 21 22 23 24 25 26 27 28 29 30 31 32 33 34 35 36 37 38 39 40 41 42 43 44 45 46 47 48 49 50
000
ASUS44 KLCH 031810
RWRLCH
RWRLCH
REGIONAL WEATHER ROUNDUP
NATIONAL WEATHER SERVICE LAKE CHARLES LA
1200 PM CST TUE MAR 03 2015

Note: "fair" indicates few or no clouds below 12,000 feet with no
significant weather and/or obstructions to visibility.


ACROSS SOUTHEAST TEXAS

CITY           SKY/WX    TMP DP  RH WIND       PRES   REMARKS
BEAUMONT       PTSUNNY   76  67  73 S13       30.02F
BEAUMONT CITY  CLOUDY    71  67  87 S14       30.03F
ORANGE         CLOUDY    68  67  96 S14       30.05F
JASPER         CLOUDY    64  62  94 S6        30.04F
$$

ACROSS CENTRAL LOUISIANA

CITY           SKY/WX    TMP DP  RH WIND       PRES   REMARKS
LEESVILLE      NOT AVBL
FULLERTON      CLOUDY    66  63  90 VRB5      30.02F
ALEXANDRIA INT CLOUDY    62  60  93 SE6       30.04F
ESLER FIELD    CLOUDY    64  62  93 S3        30.05F
DERIDDER       CLOUDY    66  65  94 CALM      30.06F
OAKDALE        CLOUDY    68  65  90 SE7       30.05F
OPELOUSAS      CLOUDY    71  68  92 S13       30.06F
$$

ACROSS SOUTHWEST AND SOUTH CENTRAL LOUISIANA

CITY           SKY/WX    TMP DP  RH WIND       PRES   REMARKS
SULPHUR        CLOUDY    72  69  92 S14       30.06F
LAKE CHARLES   CLOUDY    71  68  90 S14G20    30.05F
CHENNAULT INT  CLOUDY    72  68  88 S9        30.05F
CAMERON PHI    FOG       64  64 100 S8        30.09F VSB 1/4
DEQUINCY       NOT AVBL
JENNINGS       CLOUDY    71  69  92 S8        30.06F
LAFAYETTE      PTSUNNY   76  69  79 S12G21    30.06F
NEW IBERIA     PTSUNNY   78  70  76 S15G23    30.07F
ABBEVILLE      NOT AVBL
PATTERSON      CLOUDY    73  70  88 S13       30.08F
SALT POINT       N/A     73  68  84 S9        30.07F
$$

SELECTED SITES ACROSS THE REGION

CITY           SKY/WX    TMP DP  RH WIND       PRES   REMARKS
HOUSTON BUSH   CLOUDY    72  67  84 S12       30.00F FOG
HOUSTON HOBBY  PTSUNNY   75  68  78 S13G20    29.99F
GALVESTON      CLOUDY    67  65  93 S18       30.03F FOG
COLLEGE STAT   CLOUDY    62  62 100 S7        29.97F FOG
CONROE         CLOUDY    66  64  93 S13       30.00F FOG
HUNTSVILLE     CLOUDY    67  64  90 S8        29.99F
LUFKIN         CLOUDY    67  62  84 S8        30.00F
SHREVEPORT     CLOUDY    55  53  93 S7        30.01F FOG
MONROE         CLOUDY    58  57  97 S6        30.06F FOG
NATCHEZ MS     CLOUDY    70  66  88 S9        30.07F
BATON ROUGE    LGT RAIN  72  68  87 S17       30.08F VSB 1
N.O. INTL ARPT PTSUNNY   79  68  69 S18G24    30.10F
SLIDELL        CLOUDY    75  68  78 SE13      30.11F
$$

MARINE REPORTS

STATION/POSITION TIME  TEMP    WIND        PRES    VSBY  WAVE
                       AIR SEA DIR/SP/G                  HT/PER
                 (UTC) (F)     (DEG/KT/KT) (MB)    (MI)  (FT/S)
BUOY 30 S HIGH I 1800   63 59  150/ 10/ 10 1016.7F         2/ 7
SEA RIM ST PARK  1800   63     160/  8/ 11 1017.4F
PORT ARTHUR      1800      55  160/  6/  9 1017.2F
SABINE PASS N    1800   68 54  200/ 11/ 16 1017.1F
TEXAS POINT      NOT AVBL
CALCASIEU PASS   1800   63 56  170/  6/  9   N/A
LK CHARLES BEACH 1800   71 56              1017.7F
MARSH ISLAND     1700   62     150/ 13/ 14   N/A           0
FRESH WATER LOCK 1800   67 60  140/ 10/ 12 1018.3F
AMERADA PASS     1800   71 48  150/  7/ 11 1018.6F
$$



USA.gov is the U.S. government's official web portal to all federal, state and local government web resources and services.